sat.trackr.live / text

‹ back to catalog

BEIDOU-3 M2 (C20)

NORAD 43002 · 2017-069B

PAYLOAD ACTIVE UNKNOWN

§ Identity

Operator
Country
PRC
Launch date
2017-11-05
Launch site
XICLF
Launch vehicle
Mass (kg)
RCS (m²)

Purposes: nav

External: N2YO · Heavens-Above · Gunter

§ Orbital elements

Epoch: 2026-09-08T20:05:21.113952Z

Period
773.24 min
Inclination
56.7676°
Eccentricity
0.0006377
Mean motion
1.86230488 rev/d
Perigee alt
21,510.3 km
Apogee alt
21,545.9 km
Semi-major
27,906.2 km
B*
0.0000e+0
RAAN
60.3694°
Arg perigee
4.3972°
Mean anomaly
355.6427°
Rev number
6,015

§ Raw data

BEIDOU-3 M2 (C20)1 43002U 17069B   26251.83704993 -.00000009  00000+0  00000+0 0  99992 43002  56.7676  60.3694 0006377   4.3972 355.6427  1.86230488 60158

JSON: /api/v1/satellites/43002 · /tle

For live sub-satellite position, see the globe view (requires WebGL).

§ Visibility from observer

Set your observer location to see the next 7 days of passes ≥ 10°. The values pass through the URL so the page stays shareable.

No JS? Fill the form by hand. The geolocation button needs JavaScript.